| time (UTC) | temp C | wind direction | speed KPH | gust KPH | rain 1hr cm | rain 24hr cm | rain mn cm | humidity % | barometer mb |
| 20260906100032 | 22 | 63 | 0.0 | 6.4 | 0.00 | 0.00 | 0.00 | 93 | 1010.9 |
| 20260906094532 | 22 | 120 | 0.0 | 9.7 | 0.00 | 0.00 | 0.00 | 93 | 1011.2 |
| 20260906093020 | 22 | 93 | 0.0 | 4.8 | 0.00 | 0.00 | 0.00 | 92 | 1010.6 |
| 20260906091554 | 22 | 280 | 0.0 | 6.4 | 0.00 | 0.00 | 0.00 | 92 | 1010.3 |
| 20260906090058 | 22 | 344 | 1.6 | 11.3 | 0.00 | 0.00 | 0.00 | 92 | 1010.2 |
| 20260906084545 | 23 | 360 | 1.6 | 16.1 | 0.00 | 0.00 | 0.00 | 91 | 1010.6 |
| 20260906083035 | 24 | 75 | 1.6 | 16.1 | 0.00 | 0.00 | 0.00 | 91 | 1010.8 |
| 20260906081511 | 25 | 50 | 0.0 | 6.4 | 0.00 | 0.00 | 0.00 | 91 | 1011.2 |
| 20260906080007 | 25 | 340 | 0.0 | 1.6 | 0.00 | 0.00 | 0.00 | 92 | 1011.2 |
| 20260906074547 | 25 | 61 | 0.0 | 6.4 | 0.00 | 0.00 | 0.00 | 92 | 1011.1 |
| 20260906073048 | 25 | 117 | 0.0 | 0.0 | 0.00 | 0.00 | 0.00 | 92 | 1010.9 |
| 20260906071529 | 25 | 117 | 0.0 | 0.0 | 0.00 | 0.00 | 0.00 | 92 | 1010.6 |
| 20260906070029 | 25 | 117 | 0.0 | 0.0 | 0.00 | 0.00 | 0.00 | 92 | 1010.5 |
| 20260906064514 | 25 | 117 | 0.0 | 0.0 | 0.00 | 0.00 | 0.00 | 92 | 1010.4 |
| 20260906063014 | 25 | 117 | 0.0 | 0.0 | 0.00 | 0.00 | 0.00 | 92 | 1010.4 |
| 20260906061538 | 25 | 117 | 0.0 | 0.0 | 0.00 | 0.00 | 0.00 | 91 | 1010.5 |
| 20260906060038 | 26 | 117 | 0.0 | 0.0 | 0.00 | 0.00 | 0.00 | 91 | 1010.8 |
| 20260906054518 | 26 | 117 | 0.0 | 0.0 | 0.00 | 0.00 | 0.00 | 90 | 1011.0 |
| 20260906053018 | 26 | 117 | 0.0 | 0.0 | 0.00 | 0.00 | 0.00 | 90 | 1011.2 |
| 20260906051608 | 26 | 117 | 0.0 | 0.0 | 0.00 | 0.00 | 0.00 | 90 | 1011.1 |
| 20260906050059 | 26 | 117 | 0.0 | 0.0 | 0.00 | 0.00 | 0.00 | 90 | 1011.2 |
| 20260906044542 | 26 | 117 | 0.0 | 0.0 | 0.00 | 0.00 | 0.00 | 90 | 1011.1 |
| 20260906043041 | 26 | 117 | 0.0 | 0.0 | 0.00 | 0.00 | 0.00 | 89 | 1011.1 |
| 20260906041521 | 26 | 119 | 1.6 | 8.0 | 0.00 | 0.00 | 0.00 | 89 | 1011.4 |
| 20260906040028 | 26 | 212 | 0.0 | 0.0 | 0.00 | 0.00 | 0.00 | 89 | 1010.9 |
| 20260906034600 | 26 | 212 | 0.0 | 0.0 | 0.00 | 0.00 | 0.00 | 88 | 1011.0 |
| 20260906033105 | 26 | 213 | 0.0 | 0.0 | 0.00 | 0.00 | 0.00 | 88 | 1011.0 |
| 20260906031542 | 26 | 213 | 0.0 | 0.0 | 0.00 | 0.00 | 0.00 | 87 | 1011.0 |
| 20260906030041 | 26 | 213 | 0.0 | 0.0 | 0.00 | 0.00 | 0.00 | 87 | 1010.7 |
| 20260906024521 | 27 | 213 | 0.0 | 0.0 | 0.00 | 0.00 | 0.00 | 86 | 1010.6 |
| 20260906023019 | 27 | 213 | 0.0 | 0.0 | 0.00 | 0.00 | 0.00 | 85 | 1010.7 |
| 20260906021501 | 27 | 213 | 0.0 | 0.0 | 0.00 | 0.00 | 0.00 | 85 | 1010.6 |
| 20260906020059 | 27 | 213 | 0.0 | 0.0 | 0.00 | 0.00 | 0.00 | 84 | 1010.4 |
| 20260906014551 | 27 | 213 | 0.0 | 0.0 | 0.00 | 0.00 | 0.00 | 83 | 1010.2 |
| 20260906013041 | 27 | 213 | 0.0 | 0.0 | 0.00 | 0.00 | 0.00 | 81 | 1009.8 |
| 20260906011532 | 28 | 213 | 0.0 | 0.0 | 0.00 | 0.00 | 0.00 | 80 | 1009.4 |
| 20260906010016 | 28 | 213 | 0.0 | 0.0 | 0.00 | 0.00 | 0.00 | 78 | 1009.4 |
| 20260906004600 | 28 | 213 | 0.0 | 0.0 | 0.00 | 0.00 | 0.00 | 76 | 1009.3 |
| 20260906003110 | 29 | 268 | 0.0 | 0.0 | 0.00 | 0.00 | 0.00 | 74 | 1009.3 |
| 20260906001533 | 30 | 242 | 0.0 | 6.4 | 0.00 | 0.00 | 0.00 | 73 | 1009.4 |
| 20260906000030 | 30 | 269 | 1.6 | 9.7 | 0.00 | 0.00 | 0.00 | 71 | 1009.3 |
| 20260905234509 | 31 | 192 | 0.0 | 9.7 | 0.00 | 0.00 | 0.00 | 68 | 1009.4 |
| 20260905233007 | 31 | 249 | 0.0 | 4.8 | 0.00 | 0.00 | 0.00 | 66 | 1009.2 |
| 20260905231548 | 31 | 154 | 0.0 | 3.2 | 0.00 | 0.00 | 0.00 | 66 | 1009.2 |
| 20260905230046 | 32 | 209 | 0.0 | 4.8 | 0.00 | 0.00 | 0.00 | 63 | 1009.1 |
| 20260905224530 | 32 | 246 | 0.0 | 0.0 | 0.00 | 0.00 | 0.00 | 58 | 1009.0 |
| 20260905223023 | 33 | 246 | 0.0 | 1.6 | 0.00 | 0.00 | 0.00 | 57 | 1009.0 |
| 20260905221504 | 33 | 74 | 0.0 | 4.8 | 0.00 | 0.00 | 0.00 | 59 | 1008.9 |
| 20260905220005 | 33 | 203 | 0.0 | 8.0 | 0.00 | 0.00 | 0.00 | 60 | 1009.0 |
| 20260905214543 | 34 | 235 | 0.0 | 4.8 | 0.00 | 0.00 | 0.00 | 56 | 1009.0 |
| 20260905213042 | 35 | 113 | 0.0 | 3.2 | 0.00 | 0.00 | 0.00 | 52 | 1009.0 |
| 20260905211522 | 36 | 111 | 0.0 | 8.0 | 0.00 | 0.00 | 0.00 | 50 | 1009.0 |
| 20260905210020 | 35 | 355 | 0.0 | 4.8 | 0.00 | 0.00 | 0.00 | 51 | 1009.0 |
| 20260905204501 | 36 | 360 | 1.6 | 8.0 | 0.00 | 0.00 | 0.00 | 51 | 1009.3 |
| 20260905203101 | 36 | 108 | 1.6 | 8.0 | 0.00 | 0.00 | 0.00 | 50 | 1009.3 |
| 20260905201544 | 35 | 92 | 0.0 | 8.0 | 0.00 | 0.00 | 0.00 | 51 | 1009.5 |
| 20260905200050 | 35 | 46 | 1.6 | 4.8 | 0.00 | 0.00 | 0.00 | 52 | 1009.4 |
| 20260905194516 | 35 | 28 | 0.0 | 3.2 | 0.00 | 0.00 | 0.00 | 53 | 1009.7 |
| 20260905193014 | 35 | 82 | 1.6 | 6.4 | 0.00 | 0.00 | 0.00 | 54 | 1010.0 |
| 20260905191614 | 35 | 124 | 0.0 | 14.5 | 0.00 | 0.00 | 0.00 | 55 | 1010.1 |
| 20260905190057 | 34 | 113 | 1.6 | 6.4 | 0.00 | 0.00 | 0.00 | 56 | 1010.5 |
| 20260905184550 | 34 | 115 | 0.0 | 8.0 | 0.00 | 0.00 | 0.00 | 55 | 1010.6 |
| 20260905183034 | 34 | 182 | 0.0 | 8.0 | 0.00 | 0.00 | 0.00 | 57 | 1010.9 |
| 20260905181535 | 33 | 76 | 0.0 | 8.0 | 0.00 | 0.00 | 0.00 | 58 | 1011.2 |
| 20260905180013 | 34 | 313 | 0.0 | 6.4 | 0.00 | 0.00 | 0.00 | 60 | 1011.4 |
| 20260905174512 | 33 | 306 | 0.0 | 1.6 | 0.00 | 0.00 | 0.00 | 60 | 1011.6 |
| 20260905173052 | 33 | 46 | 0.0 | 4.8 | 0.00 | 0.00 | 0.00 | 63 | 1011.8 |
| 20260905171552 | 33 | 29 | 0.0 | 4.8 | 0.00 | 0.00 | 0.00 | 64 | 1012.0 |
| 20260905170046 | 33 | 44 | 1.6 | 8.0 | 0.00 | 0.00 | 0.00 | 65 | 1012.3 |
| 20260905164534 | 32 | 297 | 0.0 | 4.8 | 0.00 | 0.00 | 0.00 | 68 | 1012.5 |
| 20260905163016 | 32 | 323 | 0.0 | 6.4 | 0.00 | 0.00 | 0.00 | 72 | 1012.5 |
| 20260905161515 | 31 | 339 | 0.0 | 8.0 | 0.00 | 0.00 | 0.00 | 72 | 1012.6 |
| 20260905160059 | 31 | 74 | 0.0 | 8.0 | 0.00 | 0.00 | 0.00 | 74 | 1012.6 |
| 20260905154603 | 30 | 351 | 0.0 | 8.0 | 0.00 | 0.00 | 0.00 | 77 | 1012.7 |
| 20260905153040 | 29 | 279 | 0.0 | 8.0 | 0.00 | 0.00 | 0.00 | 80 | 1012.7 |
| 20260905151542 | 28 | 140 | 1.6 | 8.0 | 0.00 | 0.00 | 0.00 | 82 | 1012.8 |
| 20260905150020 | 28 | 100 | 0.0 | 8.0 | 0.00 | 0.00 | 0.00 | 84 | 1012.7 |
| 20260905144528 | 27 | 5 | 0.0 | 8.0 | 0.00 | 0.00 | 0.00 | 86 | 1012.7 |
| 20260905143001 | 27 | 130 | 0.0 | 4.8 | 0.00 | 0.00 | 0.00 | 88 | 1012.9 |
| 20260905141501 | 26 | 23 | 0.0 | 4.8 | 0.00 | 0.00 | 0.00 | 89 | 1012.9 |
| 20260905140041 | 26 | 74 | 0.0 | 6.4 | 0.00 | 0.00 | 0.00 | 91 | 1012.9 |
| 20260905134543 | 25 | 80 | 0.0 | 3.2 | 0.00 | 0.00 | 0.00 | 92 | 1013.1 |
| 20260905133024 | 25 | 44 | 0.0 | 6.4 | 0.00 | 0.00 | 0.00 | 93 | 1013.1 |
| 20260905131533 | 23 | 95 | 0.0 | 0.0 | 0.00 | 0.00 | 0.00 | 94 | 1013.1 |
| 20260905130003 | 23 | 95 | 0.0 | 0.0 | 0.00 | 0.00 | 0.00 | 94 | 1013.2 |
| 20260905124505 | 23 | 95 | 0.0 | 0.0 | 0.00 | 0.00 | 0.00 | 94 | 1013.1 |
| 20260905123046 | 23 | 95 | 0.0 | 0.0 | 0.00 | 0.00 | 0.00 | 94 | 1013.0 |
| 20260905121545 | 22 | 95 | 0.0 | 0.0 | 0.00 | 0.00 | 0.00 | 94 | 1013.0 |
| 20260905120032 | 22 | 95 | 0.0 | 0.0 | 0.00 | 0.00 | 0.00 | 94 | 1012.9 |
| 20260905114540 | 22 | 95 | 0.0 | 0.0 | 0.00 | 0.00 | 0.00 | 93 | 1012.7 |
| 20260905113037 | 22 | 95 | 0.0 | 0.0 | 0.00 | 0.00 | 0.00 | 93 | 1012.6 |
| 20260905111531 | 22 | 95 | 0.0 | 0.0 | 0.00 | 0.00 | 0.00 | 93 | 1012.6 |
| 20260905110034 | 22 | 95 | 0.0 | 0.0 | 0.00 | 0.00 | 0.00 | 93 | 1012.6 |
| 20260905104529 | 22 | 95 | 0.0 | 0.0 | 0.00 | 0.00 | 0.00 | 93 | 1012.5 |
| 20260905103027 | 23 | 95 | 0.0 | 0.0 | 0.00 | 0.00 | 0.00 | 93 | 1012.4 |
| 20260905101538 | 23 | 95 | 0.0 | 0.0 | 0.00 | 0.00 | 0.00 | 92 | 1012.3 |